Time,TemperatureF,DewpointF,PressureIn,WindDirection,WindDirectionDegrees,WindSpeedMPH,WindSpeedGustMPH,Humidity,HourlyPrecipIn,Conditions,Clouds,dailyrainin,SoftwareType,DateUTC
2013-11-25 00:02:00,40.3,8.1,29.88,NE,45,4.7,5.8,26,0.00,CLR,,0.00,WeatherDisplay:10.37,2013-11-25 06:02:00,
2013-11-25 00:07:00,40.3,8.1,29.88,ENE,68,4.7,5.8,26,0.00,CLR,,0.00,WeatherDisplay:10.37,2013-11-25 06:07:00,
2013-11-25 00:12:00,40.1,7.9,29.88,ENE,68,4.3,5.8,26,0.00,CLR,,0.00,WeatherDisplay:10.37,2013-11-25 06:12:00,
2013-11-25 00:17:00,40.1,7.9,29.88,NNE,22,4.3,5.8,26,0.00,CLR,,0.00,WeatherDisplay:10.37,2013-11-25 06:17:00,
2013-11-25 00:22:00,39.9,7.7,29.88,NE,45,4.3,7.1,26,0.00,CLR,,0.00,WeatherDisplay:10.37,2013-11-25 06:22:00,
2013-11-25 00:27:00,39.9,7.7,29.88,ENE,68,3.6,5.9,26,0.00,CLR,,0.00,WeatherDisplay:10.37,2013-11-25 06:27:00,
2013-11-25 00:32:00,39.7,9.2,29.88,NNE,22,3.6,4.6,28,0.00,CLR,,0.00,WeatherDisplay:10.37,2013-11-25 06:32:00,
2013-11-25 00:37:00,39.7,9.2,29.88,NE,45,4.7,5.9,28,0.00,CLR,,0.00,WeatherDisplay:10.37,2013-11-25 06:37:00,
2013-11-25 00:42:00,39.7,9.2,29.88,NNE,22,4.5,5.8,28,0.00,CLR,,0.00,WeatherDisplay:10.37,2013-11-25 06:42:00,
2013-11-25 00:47:00,39.6,9.1,29.88,East,90,3.6,4.0,28,0.00,CLR,,0.00,WeatherDisplay:10.37,2013-11-25 06:47:00,
2013-11-25 00:52:00,39.6,9.1,29.88,ENE,68,4.7,6.0,28,0.00,CLR,,0.00,WeatherDisplay:10.37,2013-11-25 06:52:00,
2013-11-25 00:57:00,39.4,8.9,29.85,ENE,68,4.3,6.0,28,0.00,CLR,,0.00,WeatherDisplay:10.37,2013-11-25 06:57:00,
2013-11-25 01:02:00,39.4,9.7,29.85,ENE,68,3.8,6.2,29,0.00,CLR,,0.00,WeatherDisplay:10.37,2013-11-25 07:02:00,
2013-11-25 01:07:00,39.4,9.7,29.85,ENE,68,4.7,5.8,29,0.00,CLR,,0.00,WeatherDisplay:10.37,2013-11-25 07:07:00,
2013-11-25 01:12:00,39.4,8.9,29.85,ENE,68,5.4,8.7,28,0.00,CLR,,0.00,WeatherDisplay:10.37,2013-11-25 07:12:00,
2013-11-25 01:17:00,39.4,9.7,29.85,NE,45,5.9,6.0,29,0.00,CLR,,0.00,WeatherDisplay:10.37,2013-11-25 07:17:00,
2013-11-25 01:22:00,39.4,9.7,29.85,ENE,68,3.8,5.8,29,0.00,CLR,,0.00,WeatherDisplay:10.37,2013-11-25 07:22:00,
2013-11-25 01:27:00,39.4,9.7,29.85,ENE,68,4.7,6.0,29,0.00,CLR,,0.00,WeatherDisplay:10.37,2013-11-25 07:27:00,
2013-11-25 01:32:00,39.7,10.0,29.85,NE,45,5.6,8.1,29,0.00,CLR,,0.00,WeatherDisplay:10.37,2013-11-25 07:32:00,
2013-11-25 01:37:00,39.7,10.0,29.85,NE,45,5.4,7.1,29,0.00,CLR,,0.00,WeatherDisplay:10.37,2013-11-25 07:37:00,
2013-11-25 01:42:00,39.7,10.0,29.85,ENE,68,4.7,5.8,29,0.00,CLR,,0.00,WeatherDisplay:10.37,2013-11-25 07:42:00,
2013-11-25 01:47:00,39.9,10.2,29.85,NE,45,4.9,6.0,29,0.00,CLR,,0.00,WeatherDisplay:10.37,2013-11-25 07:47:00,
2013-11-25 01:52:00,39.9,10.2,29.85,ENE,68,4.9,8.1,29,0.00,CLR,,0.00,WeatherDisplay:10.37,2013-11-25 07:52:00,
2013-11-25 01:57:00,39.9,10.2,29.85,East,90,5.4,6.9,29,0.00,CLR,,0.00,WeatherDisplay:10.37,2013-11-25 07:57:00,
2013-11-25 02:02:00,39.9,10.2,29.85,ENE,68,4.7,7.8,29,0.00,CLR,,0.00,WeatherDisplay:10.37,2013-11-25 08:02:00,
2013-11-25 02:07:00,40.1,10.3,29.85,East,90,4.5,5.8,29,0.00,CLR,,0.00,WeatherDisplay:10.37,2013-11-25 08:07:00,
2013-11-25 02:12:00,40.1,10.3,29.83,ENE,68,4.5,5.9,29,0.00,CLR,,0.00,WeatherDisplay:10.37,2013-11-25 08:12:00,
2013-11-25 02:17:00,40.1,10.3,29.83,ENE,68,4.7,6.9,29,0.00,CLR,,0.00,WeatherDisplay:10.37,2013-11-25 08:17:00,
2013-11-25 02:22:00,40.1,10.3,29.83,ENE,68,4.3,6.0,29,0.00,CLR,,0.00,WeatherDisplay:10.37,2013-11-25 08:22:00,
2013-11-25 02:27:00,40.1,10.3,29.85,ENE,68,4.0,5.8,29,0.00,CLR,,0.00,WeatherDisplay:10.37,2013-11-25 08:27:00,
2013-11-25 02:32:00,39.9,10.2,29.85,ENE,68,4.7,6.0,29,0.00,CLR,,0.00,WeatherDisplay:10.37,2013-11-25 08:32:00,
2013-11-25 02:37:00,39.9,10.2,29.85,ENE,68,4.0,4.7,29,0.00,CLR,,0.00,WeatherDisplay:10.37,2013-11-25 08:37:00,
2013-11-25 02:42:00,39.9,10.9,29.83,East,90,4.7,5.8,30,0.00,CLR,,0.00,WeatherDisplay:10.37,2013-11-25 08:42:00,
2013-11-25 02:47:00,40.1,11.1,29.83,ENE,68,4.0,6.9,30,0.00,CLR,,0.00,WeatherDisplay:10.37,2013-11-25 08:47:00,
2013-11-25 02:52:00,40.3,11.3,29.83,ENE,68,6.0,7.1,30,0.00,CLR,,0.00,WeatherDisplay:10.37,2013-11-25 08:52:00,
2013-11-25 02:57:00,40.5,11.4,29.83,East,90,5.6,8.1,30,0.00,CLR,,0.00,WeatherDisplay:10.37,2013-11-25 08:57:00,
2013-11-25 03:02:00,40.5,11.4,29.83,ESE,112,3.8,5.8,30,0.00,CLR,,0.00,WeatherDisplay:10.37,2013-11-25 09:02:00,
2013-11-25 03:07:00,40.6,11.6,29.83,East,90,7.1,8.1,30,0.00,CLR,,0.00,WeatherDisplay:10.37,2013-11-25 09:07:00,
2013-11-25 03:12:00,40.8,11.7,29.80,ENE,68,4.9,8.1,30,0.00,CLR,,0.00,WeatherDisplay:10.37,2013-11-25 09:12:00,
2013-11-25 03:17:00,41.0,11.9,29.80,ENE,68,6.0,6.9,30,0.00,CLR,,0.00,WeatherDisplay:10.37,2013-11-25 09:17:00,
2013-11-25 03:22:00,41.0,11.9,29.80,ENE,68,6.9,7.4,30,0.00,CLR,,0.00,WeatherDisplay:10.37,2013-11-25 09:22:00,
2013-11-25 03:27:00,41.0,11.9,29.80,ENE,68,6.9,9.2,30,0.00,CLR,,0.00,WeatherDisplay:10.37,2013-11-25 09:27:00,
2013-11-25 03:32:00,41.0,12.6,29.80,East,90,6.9,7.4,31,0.00,CLR,,0.00,WeatherDisplay:10.37,2013-11-25 09:32:00,
2013-11-25 03:37:00,41.0,12.6,29.80,East,90,4.5,5.8,31,0.00,CLR,,0.00,WeatherDisplay:10.37,2013-11-25 09:37:00,
2013-11-25 03:42:00,41.0,13.4,29.80,East,90,4.5,5.9,32,0.00,CLR,,0.00,WeatherDisplay:10.37,2013-11-25 09:42:00,
2013-11-25 03:47:00,41.2,13.5,29.80,East,90,6.2,8.1,32,0.00,CLR,,0.00,WeatherDisplay:10.37,2013-11-25 09:47:00,
2013-11-25 03:52:00,41.2,13.5,29.80,ENE,68,5.6,8.1,32,0.00,CLR,,0.00,WeatherDisplay:10.37,2013-11-25 09:52:00,
2013-11-25 03:57:00,41.2,14.2,29.80,East,90,4.7,6.4,33,0.00,CLR,,0.00,WeatherDisplay:10.37,2013-11-25 09:57:00,
2013-11-25 04:02:00,41.2,14.2,29.80,East,90,4.3,6.9,33,0.00,CLR,,0.00,WeatherDisplay:10.37,2013-11-25 10:02:00,
2013-11-25 04:07:00,41.2,14.9,29.80,ENE,68,4.9,5.9,34,0.00,CLR,,0.00,WeatherDisplay:10.37,2013-11-25 10:07:00,
2013-11-25 04:12:00,41.2,14.9,29.80,NE,45,4.5,6.2,34,0.00,CLR,,0.00,WeatherDisplay:10.37,2013-11-25 10:12:00,
2013-11-25 04:17:00,41.2,15.6,29.80,ENE,68,4.0,4.6,35,0.00,CLR,,0.00,WeatherDisplay:10.37,2013-11-25 10:17:00,
2013-11-25 04:22:00,41.2,16.2,29.80,ENE,68,4.7,6.0,36,0.00,CLR,,0.00,WeatherDisplay:10.37,2013-11-25 10:22:00,
2013-11-25 04:27:00,41.4,16.4,29.80,NE,45,4.5,4.9,36,0.00,CLR,,0.00,WeatherDisplay:10.37,2013-11-25 10:27:00,
2013-11-25 04:32:00,41.4,17.0,29.80,ENE,68,3.8,5.4,37,0.00,CLR,,0.00,WeatherDisplay:10.37,2013-11-25 10:32:00,
2013-11-25 04:37:00,41.5,17.2,29.80,East,90,4.7,6.2,37,0.00,CLR,,0.00,WeatherDisplay:10.37,2013-11-25 10:37:00,
2013-11-25 04:42:00,41.5,17.8,29.80,East,90,5.6,6.4,38,0.00,CLR,,0.00,WeatherDisplay:10.37,2013-11-25 10:42:00,
2013-11-25 04:47:00,41.5,17.8,29.80,ENE,68,5.6,6.2,38,0.00,CLR,,0.00,WeatherDisplay:10.37,2013-11-25 10:47:00,
2013-11-25 04:52:00,41.7,17.9,29.80,ENE,68,4.0,6.9,38,0.00,CLR,,0.00,WeatherDisplay:10.37,2013-11-25 10:52:00,
2013-11-25 04:57:00,41.7,17.9,29.80,ENE,68,4.0,8.1,38,0.00,CLR,,0.00,WeatherDisplay:10.37,2013-11-25 10:57:00,
2013-11-25 05:02:00,41.7,17.9,29.80,East,90,5.6,6.0,38,0.00,CLR,,0.00,WeatherDisplay:10.37,2013-11-25 11:02:00,
2013-11-25 05:07:00,41.9,18.1,29.80,ENE,68,4.5,5.8,38,0.00,CLR,,0.00,WeatherDisplay:10.37,2013-11-25 11:07:00,
2013-11-25 05:12:00,41.9,18.1,29.80,ENE,68,4.7,6.9,38,0.00,CLR,,0.00,WeatherDisplay:10.37,2013-11-25 11:12:00,
2013-11-25 05:17:00,42.1,18.3,29.80,ENE,68,4.9,6.7,38,0.00,CLR,,0.00,WeatherDisplay:10.37,2013-11-25 11:17:00,
2013-11-25 05:22:00,42.1,18.3,29.80,East,90,4.3,6.4,38,0.00,CLR,,0.00,WeatherDisplay:10.37,2013-11-25 11:22:00,
2013-11-25 05:27:00,42.1,18.3,29.80,ENE,68,5.6,8.1,38,0.00,CLR,,0.00,WeatherDisplay:10.37,2013-11-25 11:27:00,
2013-11-25 05:32:00,42.3,18.4,29.80,East,90,6.7,6.9,38,0.00,CLR,,0.00,WeatherDisplay:10.37,2013-11-25 11:32:00,
2013-11-25 05:37:00,42.3,18.4,29.80,ENE,68,4.9,6.9,38,0.00,CLR,,0.00,WeatherDisplay:10.37,2013-11-25 11:37:00,
2013-11-25 05:42:00,42.3,18.4,29.80,ENE,68,6.0,8.1,38,0.00,CLR,,0.00,WeatherDisplay:10.37,2013-11-25 11:42:00,
2013-11-25 05:47:00,42.4,18.6,29.80,ENE,68,6.2,8.1,38,0.00,CLR,,0.00,WeatherDisplay:10.37,2013-11-25 11:47:00,
2013-11-25 05:52:00,42.4,18.6,29.80,East,90,5.4,5.9,38,0.00,CLR,,0.00,WeatherDisplay:10.37,2013-11-25 11:52:00,
2013-11-25 05:57:00,42.6,18.8,29.80,ENE,68,5.4,7.6,38,0.00,CLR,,0.00,WeatherDisplay:10.37,2013-11-25 11:57:00,
2013-11-25 06:02:00,42.8,18.9,29.80,NE,45,5.6,7.1,38,0.00,CLR,,0.00,WeatherDisplay:10.37,2013-11-25 12:02:00,
2013-11-25 06:07:00,42.8,18.9,29.80,ENE,68,6.4,7.1,38,0.00,CLR,,0.00,WeatherDisplay:10.37,2013-11-25 12:07:00,
2013-11-25 06:12:00,43.0,19.1,29.80,ENE,68,5.9,6.9,38,0.00,CLR,,0.00,WeatherDisplay:10.37,2013-11-25 12:12:00,
2013-11-25 06:17:00,43.3,19.4,29.80,NE,45,4.9,8.1,38,0.00,CLR,,0.00,WeatherDisplay:10.37,2013-11-25 12:17:00,
2013-11-25 06:22:00,43.3,19.4,29.80,NE,45,4.9,5.9,38,0.00,CLR,,0.00,WeatherDisplay:10.37,2013-11-25 12:22:00,
2013-11-25 06:27:00,43.5,19.6,29.83,ENE,68,5.6,6.9,38,0.00,CLR,,0.00,WeatherDisplay:10.37,2013-11-25 12:27:00,
2013-11-25 06:32:00,43.7,19.7,29.83,ENE,68,5.4,8.1,38,0.00,CLR,,0.00,WeatherDisplay:10.37,2013-11-25 12:32:00,
2013-11-25 06:37:00,43.7,19.7,29.83,ENE,68,4.9,6.2,38,0.00,CLR,,0.00,WeatherDisplay:10.37,2013-11-25 12:37:00,
2013-11-25 06:42:00,43.9,19.9,29.83,NNE,22,4.0,5.8,38,0.00,CLR,,0.00,WeatherDisplay:10.37,2013-11-25 12:42:00,
2013-11-25 06:47:00,44.2,20.2,29.83,NE,45,4.5,6.4,38,0.00,CLR,,0.00,WeatherDisplay:10.37,2013-11-25 12:47:00,
2013-11-25 06:52:00,44.4,20.4,29.83,NNE,22,4.5,6.2,38,0.00,CLR,,0.00,WeatherDisplay:10.37,2013-11-25 12:52:00,
2013-11-25 06:57:00,44.6,20.5,29.80,East,90,6.4,7.8,38,0.00,CLR,,0.00,WeatherDisplay:10.37,2013-11-25 12:57:00,
2013-11-25 07:02:00,44.6,20.5,29.80,ENE,68,7.6,8.1,38,0.00,CLR,,0.00,WeatherDisplay:10.37,2013-11-25 13:02:00,
2013-11-25 07:07:00,44.8,20.7,29.80,ENE,68,6.4,9.2,38,0.00,CLR,,0.00,WeatherDisplay:10.37,2013-11-25 13:07:00,
2013-11-25 07:12:00,45.1,21.0,29.80,NE,45,6.0,6.0,38,0.00,CLR,,0.00,WeatherDisplay:10.37,2013-11-25 13:12:00,
2013-11-25 07:17:00,45.3,21.2,29.80,ENE,68,6.9,8.5,38,0.00,CLR,,0.00,WeatherDisplay:10.37,2013-11-25 13:17:00,
2013-11-25 07:22:00,45.5,21.3,29.80,ENE,68,6.0,10.7,38,0.00,CLR,,0.00,WeatherDisplay:10.37,2013-11-25 13:22:00,
2013-11-25 07:27:00,45.5,21.3,29.83,ESE,112,6.0,6.4,38,0.00,CLR,,0.00,WeatherDisplay:10.37,2013-11-25 13:27:00,
2013-11-25 07:32:00,45.7,21.5,29.83,ENE,68,5.4,10.5,38,0.00,CLR,,0.00,WeatherDisplay:10.37,2013-11-25 13:32:00,
2013-11-25 07:37:00,45.9,21.7,29.83,East,90,6.9,9.2,38,0.00,CLR,,0.00,WeatherDisplay:10.37,2013-11-25 13:37:00,
2013-11-25 07:42:00,45.9,21.7,29.83,East,90,6.4,9.2,38,0.00,CLR,,0.00,WeatherDisplay:10.37,2013-11-25 13:42:00,
2013-11-25 07:47:00,46.0,21.8,29.83,ENE,68,5.4,9.2,38,0.00,CLR,,0.00,WeatherDisplay:10.37,2013-11-25 13:47:00,
2013-11-25 07:52:00,46.2,22.0,29.83,East,90,5.4,9.2,38,0.00,CLR,,0.00,WeatherDisplay:10.37,2013-11-25 13:52:00,
2013-11-25 07:57:00,46.4,21.5,29.83,ENE,68,7.4,10.2,37,0.00,CLR,,0.00,WeatherDisplay:10.37,2013-11-25 13:57:00,
2013-11-25 08:02:00,46.6,22.3,29.83,ENE,68,4.9,6.4,38,0.00,CLR,,0.00,WeatherDisplay:10.37,2013-11-25 14:02:00,
2013-11-25 08:07:00,46.8,21.8,29.83,East,90,5.9,8.1,37,0.00,CLR,,0.00,WeatherDisplay:10.37,2013-11-25 14:07:00,
2013-11-25 08:12:00,46.9,22.0,29.83,ENE,68,9.7,11.5,37,0.00,CLR,,0.00,WeatherDisplay:10.37,2013-11-25 14:12:00,
2013-11-25 08:17:00,47.1,22.1,29.83,ENE,68,8.7,10.5,37,0.00,CLR,,0.00,WeatherDisplay:10.37,2013-11-25 14:17:00,
2013-11-25 08:22:00,47.1,22.1,29.83,East,90,7.8,10.4,37,0.00,CLR,,0.00,WeatherDisplay:10.37,2013-11-25 14:22:00,
2013-11-25 08:27:00,47.1,22.1,29.83,ENE,68,6.9,12.1,37,0.00,CLR,,0.00,WeatherDisplay:10.37,2013-11-25 14:27:00,
2013-11-25 08:32:00,47.3,22.3,29.83,ENE,68,7.6,9.8,37,0.00,CLR,,0.00,WeatherDisplay:10.37,2013-11-25 14:32:00,
2013-11-25 08:37:00,47.3,22.3,29.83,East,90,9.2,10.7,37,0.00,CLR,,0.00,WeatherDisplay:10.37,2013-11-25 14:37:00,
2013-11-25 08:42:00,47.3,22.3,29.83,East,90,6.7,9.7,37,0.00,CLR,,0.00,WeatherDisplay:10.37,2013-11-25 14:42:00,
2013-11-25 08:47:00,47.5,22.5,29.83,East,90,6.4,8.5,37,0.00,CLR,,0.00,WeatherDisplay:10.37,2013-11-25 14:47:00,
2013-11-25 08:52:00,47.5,22.5,29.83,ENE,68,6.0,8.1,37,0.00,CLR,,0.00,WeatherDisplay:10.37,2013-11-25 14:52:00,
2013-11-25 08:57:00,47.5,22.5,29.83,NE,45,7.4,10.4,37,0.00,CLR,,0.00,WeatherDisplay:10.37,2013-11-25 14:57:00,
2013-11-25 09:02:00,47.5,22.5,29.83,ESE,112,7.4,12.3,37,0.00,CLR,,0.00,WeatherDisplay:10.37,2013-11-25 15:02:00,
2013-11-25 09:07:00,47.7,22.6,29.83,East,90,4.9,9.2,37,0.00,CLR,,0.00,WeatherDisplay:10.37,2013-11-25 15:07:00,
2013-11-25 09:12:00,47.8,22.8,29.83,SE,135,4.9,7.4,37,0.00,CLR,,0.00,WeatherDisplay:10.37,2013-11-25 15:12:00,
2013-11-25 09:17:00,47.8,22.8,29.83,ENE,68,7.8,10.4,37,0.00,CLR,,0.00,WeatherDisplay:10.37,2013-11-25 15:17:00,
2013-11-25 09:22:00,47.8,22.8,29.83,NE,45,6.2,8.1,37,0.00,CLR,,0.00,WeatherDisplay:10.37,2013-11-25 15:22:00,
2013-11-25 09:27:00,47.8,22.8,29.83,ENE,68,8.7,13.8,37,0.00,CLR,,0.00,WeatherDisplay:10.37,2013-11-25 15:27:00,
2013-11-25 09:32:00,48.0,23.0,29.83,ENE,68,6.0,10.4,37,0.00,CLR,,0.00,WeatherDisplay:10.37,2013-11-25 15:32:00,
2013-11-25 09:37:00,48.2,23.1,29.83,ENE,68,6.7,8.1,37,0.00,CLR,,0.00,WeatherDisplay:10.37,2013-11-25 15:37:00,
2013-11-25 09:42:00,48.4,23.3,29.83,East,90,6.2,10.4,37,0.00,CLR,,0.00,WeatherDisplay:10.37,2013-11-25 15:42:00,
2013-11-25 09:47:00,48.4,23.3,29.83,East,90,5.9,9.2,37,0.00,CLR,,0.00,WeatherDisplay:10.37,2013-11-25 15:47:00,
2013-11-25 09:52:00,48.6,23.4,29.83,ENE,68,7.1,9.8,37,0.00,CLR,,0.00,WeatherDisplay:10.37,2013-11-25 15:52:00,
2013-11-25 09:57:00,48.4,23.3,29.83,East,90,6.7,11.5,37,0.00,CLR,,0.00,WeatherDisplay:10.37,2013-11-25 15:57:00,
2013-11-25 10:02:00,48.6,23.4,29.83,ENE,68,7.4,9.7,37,0.00,CLR,,0.00,WeatherDisplay:10.37,2013-11-25 16:02:00,
2013-11-25 10:07:00,48.6,23.4,29.83,ENE,68,8.1,10.4,37,0.00,CLR,,0.00,WeatherDisplay:10.37,2013-11-25 16:07:00,
2013-11-25 10:12:00,48.7,23.6,29.83,East,90,6.4,11.5,37,0.00,CLR,,0.00,WeatherDisplay:10.37,2013-11-25 16:12:00,
2013-11-25 10:17:00,48.7,23.6,29.83,ENE,68,6.9,10.7,37,0.00,CLR,,0.00,WeatherDisplay:10.37,2013-11-25 16:17:00,
2013-11-25 10:22:00,48.7,23.6,29.83,ENE,68,7.1,10.4,37,0.00,CLR,,0.00,WeatherDisplay:10.37,2013-11-25 16:22:00,
2013-11-25 10:27:00,48.9,24.4,29.80,East,90,5.6,8.1,38,0.00,CLR,,0.00,WeatherDisplay:10.37,2013-11-25 16:27:00,
2013-11-25 10:32:00,49.1,24.6,29.80,East,90,9.0,11.5,38,0.00,CLR,,0.00,WeatherDisplay:10.37,2013-11-25 16:32:00,
2013-11-25 10:37:00,49.3,24.7,29.80,ESE,112,6.4,10.4,38,0.00,CLR,,0.00,WeatherDisplay:10.37,2013-11-25 16:37:00,
2013-11-25 10:42:00,49.5,24.9,29.80,East,90,9.2,10.9,38,0.00,CLR,,0.00,WeatherDisplay:10.37,2013-11-25 16:42:00,
2013-11-25 10:47:00,49.6,25.0,29.80,ESE,112,7.4,9.2,38,0.00,CLR,,0.00,WeatherDisplay:10.37,2013-11-25 16:47:00,
2013-11-25 10:52:00,50.0,25.4,29.80,ENE,68,4.0,8.5,38,0.00,CLR,,0.00,WeatherDisplay:10.37,2013-11-25 16:52:00,
2013-11-25 10:57:00,50.2,25.5,29.77,ENE,68,7.6,12.5,38,0.00,CLR,,0.00,WeatherDisplay:10.37,2013-11-25 16:57:00,
2013-11-25 11:02:00,50.4,25.7,29.77,ENE,68,6.2,9.7,38,0.00,CLR,,0.00,WeatherDisplay:10.37,2013-11-25 17:02:00,
2013-11-25 11:07:00,50.4,25.7,29.77,East,90,6.0,6.9,38,0.00,CLR,,0.00,WeatherDisplay:10.37,2013-11-25 17:07:00,
2013-11-25 11:12:00,50.5,25.8,29.77,ENE,68,7.4,10.4,38,0.00,CLR,,0.00,WeatherDisplay:10.37,2013-11-25 17:12:00,
2013-11-25 11:17:00,50.7,26.0,29.77,East,90,4.5,8.1,38,0.00,CLR,,0.00,WeatherDisplay:10.37,2013-11-25 17:17:00,
2013-11-25 11:22:00,50.7,26.0,29.77,ENE,68,7.4,9.2,38,0.00,CLR,,0.00,WeatherDisplay:10.37,2013-11-25 17:22:00,
2013-11-25 11:27:00,50.7,26.6,29.77,East,90,7.1,9.2,39,0.00,CLR,,0.00,WeatherDisplay:10.37,2013-11-25 17:27:00,
2013-11-25 11:32:00,50.9,26.8,29.77,ENE,68,6.0,10.4,39,0.00,CLR,,0.00,WeatherDisplay:10.37,2013-11-25 17:32:00,
2013-11-25 11:37:00,50.9,26.8,29.77,ENE,68,9.2,12.7,39,0.00,CLR,,0.00,WeatherDisplay:10.37,2013-11-25 17:37:00,
2013-11-25 11:42:00,51.1,27.0,29.77,ESE,112,5.9,8.1,39,0.00,CLR,,0.00,WeatherDisplay:10.37,2013-11-25 17:42:00,
2013-11-25 11:47:00,51.3,27.1,29.77,East,90,7.4,9.2,39,0.00,CLR,,0.00,WeatherDisplay:10.37,2013-11-25 17:47:00,
2013-11-25 11:52:00,51.4,27.3,29.77,East,90,6.9,13.8,39,0.00,CLR,,0.00,WeatherDisplay:10.37,2013-11-25 17:52:00,
2013-11-25 11:57:00,51.6,27.4,29.74,East,90,7.1,10.4,39,0.00,CLR,,0.00,WeatherDisplay:10.37,2013-11-25 17:57:00,
2013-11-25 12:02:00,51.8,27.6,29.74,ENE,68,6.0,9.2,39,0.00,CLR,,0.00,WeatherDisplay:10.37,2013-11-25 18:02:00,
2013-11-25 12:07:00,51.8,27.6,29.74,East,90,7.8,15.4,39,0.00,CLR,,0.00,WeatherDisplay:10.37,2013-11-25 18:07:00,
2013-11-25 12:12:00,51.8,27.0,29.74,East,90,6.0,8.1,38,0.00,CLR,,0.00,WeatherDisplay:10.37,2013-11-25 18:12:00,
2013-11-25 12:17:00,51.8,27.0,29.74,ENE,68,5.9,9.7,38,0.00,CLR,,0.00,WeatherDisplay:10.37,2013-11-25 18:17:00,
2013-11-25 12:22:00,51.8,27.0,29.74,ESE,112,5.4,8.1,38,0.00,CLR,,0.00,WeatherDisplay:10.37,2013-11-25 18:22:00,
2013-11-25 12:27:00,51.8,27.0,29.74,ESE,112,9.8,13.8,38,0.00,CLR,,0.00,WeatherDisplay:10.37,2013-11-25 18:27:00,
2013-11-25 12:32:00,51.8,27.0,29.74,East,90,7.8,11.5,38,0.00,CLR,,0.00,WeatherDisplay:10.37,2013-11-25 18:32:00,
2013-11-25 12:37:00,52.0,27.1,29.74,ENE,68,7.4,10.4,38,0.00,CLR,,0.00,WeatherDisplay:10.37,2013-11-25 18:37:00,
2013-11-25 12:42:00,52.2,27.3,29.74,East,90,5.4,8.1,38,0.00,CLR,,0.00,WeatherDisplay:10.37,2013-11-25 18:42:00,
2013-11-25 12:47:00,52.2,27.3,29.74,East,90,6.2,13.8,38,0.00,CLR,,0.00,WeatherDisplay:10.37,2013-11-25 18:47:00,
2013-11-25 12:52:00,52.3,27.5,29.74,East,90,6.4,9.8,38,0.00,CLR,,0.00,WeatherDisplay:10.37,2013-11-25 18:52:00,
2013-11-25 12:57:00,52.3,28.1,29.74,ENE,68,8.1,11.5,39,0.00,CLR,,0.00,WeatherDisplay:10.37,2013-11-25 18:57:00,
2013-11-25 13:02:00,52.5,27.6,29.74,East,90,7.4,10.4,38,0.00,CLR,,0.00,WeatherDisplay:10.37,2013-11-25 19:02:00,
2013-11-25 13:07:00,52.9,28.6,29.74,ESE,112,5.9,6.0,39,0.00,CLR,,0.00,WeatherDisplay:10.37,2013-11-25 19:07:00,
2013-11-25 13:12:00,53.2,28.3,29.71,East,90,5.9,9.2,38,0.00,CLR,,0.00,WeatherDisplay:10.37,2013-11-25 19:12:00,
2013-11-25 13:17:00,53.4,28.4,29.71,ESE,112,8.5,12.8,38,0.00,CLR,,0.00,WeatherDisplay:10.37,2013-11-25 19:17:00,
2013-11-25 13:22:00,53.6,28.6,29.71,East,90,6.7,10.4,38,0.00,CLR,,0.00,WeatherDisplay:10.37,2013-11-25 19:22:00,
2013-11-25 13:27:00,53.8,28.7,29.71,East,90,6.7,8.1,38,0.00,CLR,,0.00,WeatherDisplay:10.37,2013-11-25 19:27:00,
2013-11-25 13:32:00,53.8,28.7,29.71,South,180,7.8,11.5,38,0.00,CLR,,0.00,WeatherDisplay:10.37,2013-11-25 19:32:00,
2013-11-25 13:37:00,54.0,28.9,29.71,East,90,9.2,12.7,38,0.00,CLR,,0.00,WeatherDisplay:10.37,2013-11-25 19:37:00,
2013-11-25 13:42:00,54.0,28.9,29.68,ESE,112,7.6,11.8,38,0.00,CLR,,0.00,WeatherDisplay:10.37,2013-11-25 19:42:00,
2013-11-25 13:47:00,54.0,28.9,29.68,East,90,8.1,10.4,38,0.00,CLR,,0.00,WeatherDisplay:10.37,2013-11-25 19:47:00,
2013-11-25 13:52:00,54.1,29.1,29.68,East,90,7.4,11.5,38,0.00,CLR,,0.00,WeatherDisplay:10.37,2013-11-25 19:52:00,
2013-11-25 13:57:00,54.3,29.2,29.71,East,90,5.4,12.7,38,0.00,CLR,,0.00,WeatherDisplay:10.37,2013-11-25 19:57:00,
2013-11-25 14:03:00,54.5,29.4,29.71,East,90,5.9,12.7,38,0.00,CLR,,0.00,WeatherDisplay:10.37,2013-11-25 20:03:00,
2013-11-25 14:08:00,54.7,29.5,29.71,ESE,112,9.2,15.0,38,0.00,CLR,,0.00,WeatherDisplay:10.37,2013-11-25 20:08:00,
2013-11-25 14:13:00,54.5,29.4,29.71,ENE,68,9.4,13.8,38,0.00,CLR,,0.00,WeatherDisplay:10.37,2013-11-25 20:13:00,
2013-11-25 14:18:00,54.5,30.0,29.71,ESE,112,7.4,9.2,39,0.00,CLR,,0.00,WeatherDisplay:10.37,2013-11-25 20:18:00,
2013-11-25 14:23:00,54.3,29.9,29.68,East,90,9.0,10.7,39,0.00,CLR,,0.00,WeatherDisplay:10.37,2013-11-25 20:23:00,
2013-11-25 14:28:00,54.3,29.9,29.68,East,90,6.0,9.2,39,0.00,CLR,,0.00,WeatherDisplay:10.37,2013-11-25 20:28:00,
2013-11-25 14:33:00,54.3,30.5,29.68,ESE,112,6.9,9.2,40,0.00,CLR,,0.00,WeatherDisplay:10.37,2013-11-25 20:33:00,
2013-11-25 14:38:00,54.3,30.5,29.71,East,90,6.2,10.5,40,0.00,CLR,,0.00,WeatherDisplay:10.37,2013-11-25 20:38:00,
2013-11-25 14:43:00,54.1,30.9,29.71,East,90,9.0,12.7,41,0.00,CLR,,0.00,WeatherDisplay:10.37,2013-11-25 20:43:00,
2013-11-25 14:48:00,54.1,30.9,29.71,East,90,7.8,9.2,41,0.00,CLR,,0.00,WeatherDisplay:10.37,2013-11-25 20:48:00,
2013-11-25 14:53:00,54.1,30.9,29.68,East,90,7.4,11.5,41,0.00,CLR,,0.00,WeatherDisplay:10.37,2013-11-25 20:53:00,
2013-11-25 14:58:00,54.1,31.5,29.68,ENE,68,8.1,13.0,42,0.00,CLR,,0.00,WeatherDisplay:10.37,2013-11-25 20:58:00,
2013-11-25 15:03:00,54.1,31.5,29.68,East,90,7.1,9.7,42,0.00,CLR,,0.00,WeatherDisplay:10.37,2013-11-25 21:03:00,
2013-11-25 15:08:00,54.1,31.5,29.68,East,90,5.4,8.5,42,0.00,CLR,,0.00,WeatherDisplay:10.37,2013-11-25 21:08:00,
2013-11-25 15:13:00,54.1,31.5,29.68,East,90,10.0,10.7,42,0.00,CLR,,0.00,WeatherDisplay:10.37,2013-11-25 21:13:00,
2013-11-25 15:18:00,54.1,31.5,29.68,East,90,8.5,10.5,42,0.00,CLR,,0.00,WeatherDisplay:10.37,2013-11-25 21:18:00,
2013-11-25 15:23:00,54.1,31.5,29.68,East,90,9.4,12.7,42,0.00,CLR,,0.00,WeatherDisplay:10.37,2013-11-25 21:23:00,
2013-11-25 15:28:00,54.1,31.5,29.68,East,90,4.7,9.8,42,0.00,CLR,,0.00,WeatherDisplay:10.37,2013-11-25 21:28:00,
2013-11-25 15:33:00,54.1,32.1,29.68,East,90,6.0,9.2,43,0.00,CLR,,0.00,WeatherDisplay:10.37,2013-11-25 21:33:00,
2013-11-25 15:38:00,54.1,32.1,29.65,East,90,5.4,8.1,43,0.00,CLR,,0.00,WeatherDisplay:10.37,2013-11-25 21:38:00,
2013-11-25 15:43:00,54.1,32.1,29.65,East,90,8.7,11.5,43,0.00,CLR,,0.00,WeatherDisplay:10.37,2013-11-25 21:43:00,
2013-11-25 15:48:00,54.1,32.1,29.65,East,90,5.9,6.9,43,0.00,CLR,,0.00,WeatherDisplay:10.37,2013-11-25 21:48:00,
2013-11-25 15:53:00,54.3,32.3,29.65,ENE,68,9.2,15.0,43,0.00,CLR,,0.00,WeatherDisplay:10.37,2013-11-25 21:53:00,
2013-11-25 15:58:00,54.3,32.3,29.65,ESE,112,6.0,7.4,43,0.00,CLR,,0.00,WeatherDisplay:10.37,2013-11-25 21:58:00,
2013-11-25 16:03:00,54.3,32.8,29.65,East,90,7.1,8.1,44,0.00,CLR,,0.00,WeatherDisplay:10.37,2013-11-25 22:03:00,
2013-11-25 16:08:00,54.3,32.8,29.65,NE,45,6.2,8.1,44,0.00,CLR,,0.00,WeatherDisplay:10.37,2013-11-25 22:08:00,
2013-11-25 16:13:00,54.3,33.4,29.65,ESE,112,6.2,8.5,45,0.00,CLR,,0.00,WeatherDisplay:10.37,2013-11-25 22:13:00,
2013-11-25 16:18:00,54.3,33.4,29.65,East,90,6.2,9.2,45,0.00,CLR,,0.00,WeatherDisplay:10.37,2013-11-25 22:18:00,
2013-11-25 16:23:00,54.5,33.6,29.65,East,90,6.2,12.8,45,0.00,CLR,,0.00,WeatherDisplay:10.37,2013-11-25 22:23:00,
2013-11-25 16:28:00,54.5,34.1,29.65,East,90,6.7,12.1,46,0.00,CLR,,0.00,WeatherDisplay:10.37,2013-11-25 22:28:00,
2013-11-25 16:33:00,54.5,34.1,29.65,East,90,7.4,11.5,46,0.00,CLR,,0.00,WeatherDisplay:10.37,2013-11-25 22:33:00,
2013-11-25 16:38:00,54.7,34.3,29.65,East,90,6.7,8.1,46,0.00,CLR,,0.00,WeatherDisplay:10.37,2013-11-25 22:38:00,
2013-11-25 16:43:00,54.7,34.3,29.65,East,90,4.3,8.1,46,0.00,CLR,,0.00,WeatherDisplay:10.37,2013-11-25 22:43:00,
2013-11-25 16:48:00,54.9,34.5,29.65,ESE,112,7.1,9.2,46,0.00,CLR,,0.00,WeatherDisplay:10.37,2013-11-25 22:48:00,
2013-11-25 16:53:00,55.0,34.6,29.65,East,90,4.0,5.8,46,0.00,CLR,,0.00,WeatherDisplay:10.37,2013-11-25 22:53:00,
2013-11-25 16:58:00,55.0,34.6,29.65,East,90,4.3,8.5,46,0.00,CLR,,0.00,WeatherDisplay:10.37,2013-11-25 22:58:00,
2013-11-25 17:03:00,55.2,34.8,29.65,East,90,6.4,8.1,46,0.00,CLR,,0.00,WeatherDisplay:10.37,2013-11-25 23:03:00,
2013-11-25 17:08:00,55.2,34.8,29.65,ESE,112,4.9,6.9,46,0.00,CLR,,0.00,WeatherDisplay:10.37,2013-11-25 23:08:00,
2013-11-25 17:13:00,55.4,34.4,29.65,East,90,9.4,10.7,45,0.00,CLR,,0.00,WeatherDisplay:10.37,2013-11-25 23:13:00,
2013-11-25 17:18:00,55.4,34.4,29.65,East,90,7.1,10.4,45,0.00,CLR,,0.00,WeatherDisplay:10.37,2013-11-25 23:18:00,
2013-11-25 17:23:00,55.6,34.6,29.65,East,90,6.2,8.5,45,0.00,CLR,,0.00,WeatherDisplay:10.37,2013-11-25 23:23:00,
2013-11-25 17:28:00,55.6,34.6,29.65,ENE,68,6.2,8.1,45,0.00,CLR,,0.00,WeatherDisplay:10.37,2013-11-25 23:28:00,
2013-11-25 17:33:00,55.8,34.7,29.65,NE,45,7.1,9.2,45,0.00,CLR,,0.00,WeatherDisplay:10.37,2013-11-25 23:33:00,
2013-11-25 17:38:00,55.8,34.7,29.65,East,90,4.7,8.1,45,0.00,CLR,,0.00,WeatherDisplay:10.37,2013-11-25 23:38:00,
2013-11-25 17:43:00,55.9,34.9,29.65,East,90,5.6,9.4,45,0.00,CLR,,0.00,WeatherDisplay:10.37,2013-11-25 23:43:00,
2013-11-25 17:48:00,55.9,34.9,29.65,East,90,7.1,9.2,45,0.00,CLR,,0.00,WeatherDisplay:10.37,2013-11-25 23:48:00,
2013-11-25 17:53:00,55.9,34.9,29.62,ESE,112,7.4,10.4,45,0.00,CLR,,0.00,WeatherDisplay:10.37,2013-11-25 23:53:00,
2013-11-25 17:58:00,56.1,35.1,29.62,SE,135,7.1,12.3,45,0.00,CLR,,0.00,WeatherDisplay:10.37,2013-11-25 23:58:00,
2013-11-25 18:03:00,56.1,35.1,29.62,East,90,6.2,10.4,45,0.00,CLR,,0.00,WeatherDisplay:10.37,2013-11-26 00:03:00,
2013-11-25 18:08:00,56.1,35.1,29.65,East,90,6.7,10.7,45,0.00,CLR,,0.00,WeatherDisplay:10.37,2013-11-26 00:08:00,
2013-11-25 18:13:00,56.3,35.2,29.65,East,90,9.2,12.7,45,0.00,CLR,,0.00,WeatherDisplay:10.37,2013-11-26 00:13:00,
2013-11-25 18:18:00,56.3,35.2,29.65,ESE,112,6.9,10.4,45,0.00,CLR,,0.00,WeatherDisplay:10.37,2013-11-26 00:18:00,
2013-11-25 18:23:00,56.3,35.2,29.62,East,90,5.4,8.1,45,0.00,CLR,,0.00,WeatherDisplay:10.37,2013-11-26 00:23:00,
2013-11-25 18:28:00,56.3,35.2,29.62,East,90,8.5,11.5,45,0.00,CLR,,0.00,WeatherDisplay:10.37,2013-11-26 00:28:00,
2013-11-25 18:33:00,56.5,35.9,29.62,East,90,8.5,10.4,46,0.00,CLR,,0.00,WeatherDisplay:10.37,2013-11-26 00:33:00,
2013-11-25 18:38:00,56.5,35.9,29.62,East,90,6.7,9.2,46,0.00,CLR,,0.00,WeatherDisplay:10.37,2013-11-26 00:38:00,
2013-11-25 18:43:00,56.3,36.8,29.62,East,90,7.1,10.4,48,0.00,CLR,,0.00,WeatherDisplay:10.37,2013-11-26 00:43:00,
2013-11-25 18:48:00,56.1,37.2,29.62,ENE,68,7.6,9.8,49,0.00,CLR,,0.00,WeatherDisplay:10.37,2013-11-26 00:48:00,
2013-11-25 18:53:00,55.8,37.9,29.62,East,90,6.9,10.4,51,0.00,CLR,,0.00,WeatherDisplay:10.37,2013-11-26 00:53:00,
2013-11-25 18:58:00,55.6,38.7,29.62,NE,45,6.2,9.2,53,0.00,CLR,,0.00,WeatherDisplay:10.37,2013-11-26 00:58:00,
2013-11-25 19:03:00,55.6,39.2,29.62,East,90,7.4,9.2,54,0.00,CLR,,0.00,WeatherDisplay:10.37,2013-11-26 01:03:00,
2013-11-25 19:08:00,55.6,39.2,29.62,East,90,6.0,10.4,54,0.00,CLR,,0.00,WeatherDisplay:10.37,2013-11-26 01:08:00,
2013-11-25 19:13:00,55.8,39.4,29.62,East,90,6.9,8.5,54,0.00,CLR,,0.00,WeatherDisplay:10.37,2013-11-26 01:13:00,
2013-11-25 19:18:00,55.8,39.8,29.62,SE,135,7.6,9.2,55,0.00,CLR,,0.00,WeatherDisplay:10.37,2013-11-26 01:18:00,
2013-11-25 19:23:00,55.9,40.0,29.59,East,90,9.7,10.4,55,0.00,CLR,,0.00,WeatherDisplay:10.37,2013-11-26 01:23:00,
2013-11-25 19:28:00,55.9,40.5,29.59,East,90,6.7,12.1,56,0.00,CLR,,0.00,WeatherDisplay:10.37,2013-11-26 01:28:00,
2013-11-25 19:33:00,55.8,41.6,29.59,East,90,7.4,11.5,59,0.00,CLR,,0.00,WeatherDisplay:10.37,2013-11-26 01:33:00,
2013-11-25 19:38:00,55.8,42.5,29.59,East,90,4.9,10.9,61,0.00,CLR,,0.00,WeatherDisplay:10.37,2013-11-26 01:38:00,
2013-11-25 19:43:00,55.8,42.5,29.59,East,90,5.6,6.9,61,0.00,CLR,,0.00,WeatherDisplay:10.37,2013-11-26 01:43:00,
2013-11-25 19:48:00,55.8,42.9,29.59,ENE,68,6.2,7.8,62,0.00,CLR,,0.00,WeatherDisplay:10.37,2013-11-26 01:48:00,
2013-11-25 19:53:00,55.9,43.1,29.62,East,90,4.0,6.4,62,0.00,CLR,,0.00,WeatherDisplay:10.37,2013-11-26 01:53:00,
2013-11-25 19:58:00,56.1,43.7,29.62,East,90,6.0,9.2,63,0.00,CLR,,0.00,WeatherDisplay:10.37,2013-11-26 01:58:00,
2013-11-25 20:03:00,56.3,43.9,29.62,East,90,6.7,9.2,63,0.00,CLR,,0.00,WeatherDisplay:10.37,2013-11-26 02:03:00,
2013-11-25 20:08:00,56.5,44.0,29.59,East,90,5.9,8.1,63,0.00,CLR,,0.00,WeatherDisplay:10.37,2013-11-26 02:08:00,
2013-11-25 20:13:00,56.7,44.2,29.59,ESE,112,4.5,6.9,63,0.00,CLR,,0.00,WeatherDisplay:10.37,2013-11-26 02:13:00,
2013-11-25 20:18:00,56.8,44.8,29.59,East,90,6.4,9.2,64,0.00,CLR,,0.00,WeatherDisplay:10.37,2013-11-26 02:18:00,
2013-11-25 20:23:00,57.0,45.0,29.56,ESE,112,7.1,9.2,64,0.00,CLR,,0.00,WeatherDisplay:10.37,2013-11-26 02:23:00,
2013-11-25 20:28:00,57.2,44.7,29.56,East,90,7.6,8.1,63,0.00,CLR,,0.00,WeatherDisplay:10.37,2013-11-26 02:28:00,
2013-11-25 20:33:00,57.6,45.1,29.56,East,90,6.4,9.2,63,0.00,CLR,,0.00,WeatherDisplay:10.37,2013-11-26 02:33:00,
2013-11-25 20:38:00,57.7,45.2,29.56,East,90,7.1,9.7,63,0.00,CLR,,0.00,WeatherDisplay:10.37,2013-11-26 02:38:00,
2013-11-25 20:43:00,57.9,45.0,29.56,ESE,112,7.4,12.7,62,0.00,CLR,,0.00,WeatherDisplay:10.37,2013-11-26 02:43:00,
2013-11-25 20:49:00,58.1,45.1,29.56,SE,135,6.7,9.2,62,0.00,CLR,,0.00,WeatherDisplay:10.37,2013-11-26 02:49:00,
2013-11-25 20:54:00,58.1,45.6,29.56,ESE,112,6.0,10.4,63,0.00,CLR,,0.00,WeatherDisplay:10.37,2013-11-26 02:54:00,
2013-11-25 20:59:00,58.1,46.4,29.56,East,90,6.9,9.2,65,0.00,CLR,,0.00,WeatherDisplay:10.37,2013-11-26 02:59:00,
2013-11-25 21:04:00,58.1,46.8,29.56,ESE,112,7.8,11.5,66,0.00,CLR,,0.00,WeatherDisplay:10.37,2013-11-26 03:04:00,
2013-11-25 21:09:00,58.3,47.0,29.56,East,90,7.6,13.8,66,0.00,CLR,,0.00,WeatherDisplay:10.37,2013-11-26 03:09:00,
2013-11-25 21:14:00,58.1,47.6,29.56,ENE,68,7.1,10.7,68,0.00,CLR,,0.00,WeatherDisplay:10.37,2013-11-26 03:14:00,
2013-11-25 21:19:00,58.1,48.0,29.56,ESE,112,6.9,8.1,69,0.00,CLR,,0.00,WeatherDisplay:10.37,2013-11-26 03:19:00,
2013-11-25 21:24:00,58.1,48.4,29.56,ESE,112,8.5,11.5,70,0.00,CLR,,0.00,WeatherDisplay:10.37,2013-11-26 03:24:00,
2013-11-25 21:29:00,57.9,48.6,29.56,ESE,112,7.4,10.4,71,0.00,CLR,,0.00,WeatherDisplay:10.37,2013-11-26 03:29:00,
2013-11-25 21:34:00,58.1,49.1,29.56,East,90,4.9,11.5,72,0.00,CLR,,0.00,WeatherDisplay:10.37,2013-11-26 03:34:00,
2013-11-25 21:40:00,58.1,49.1,29.56,East,90,5.9,8.1,72,0.00,CLR,,0.00,WeatherDisplay:10.37,2013-11-26 03:40:00,
2013-11-25 21:45:00,58.1,49.5,29.56,ESE,112,9.7,12.7,73,0.00,CLR,,0.00,WeatherDisplay:10.37,2013-11-26 03:45:00,
2013-11-25 21:50:00,58.1,49.5,29.56,East,90,6.9,10.4,73,0.00,CLR,,0.00,WeatherDisplay:10.37,2013-11-26 03:50:00,
2013-11-25 21:55:00,58.1,49.5,29.53,ENE,68,8.5,9.2,73,0.00,CLR,,0.00,WeatherDisplay:10.37,2013-11-26 03:55:00,
2013-11-25 22:00:00,58.3,50.0,29.53,ESE,112,6.2,10.5,74,0.00,CLR,,0.00,WeatherDisplay:10.37,2013-11-26 04:00:00,
2013-11-25 22:05:00,58.5,50.2,29.53,East,90,6.7,8.1,74,0.00,CLR,,0.00,WeatherDisplay:10.37,2013-11-26 04:05:00,
2013-11-25 22:10:00,58.5,50.2,29.56,ESE,112,6.0,8.1,74,0.00,CLR,,0.00,WeatherDisplay:10.37,2013-11-26 04:10:00,
2013-11-25 22:15:00,58.5,50.2,29.56,East,90,3.8,4.6,74,0.00,CLR,,0.00,WeatherDisplay:10.37,2013-11-26 04:15:00,
2013-11-25 22:20:00,58.5,50.2,29.56,SE,135,4.3,8.1,74,0.00,CLR,,0.00,WeatherDisplay:10.37,2013-11-26 04:20:00,
2013-11-25 22:25:00,58.5,50.6,29.56,East,90,7.4,9.2,75,0.00,CLR,,0.00,WeatherDisplay:10.37,2013-11-26 04:25:00,
2013-11-25 22:30:00,58.5,50.9,29.56,East,90,4.3,5.8,76,0.00,CLR,,0.00,WeatherDisplay:10.37,2013-11-26 04:30:00,
2013-11-25 22:35:00,58.6,51.4,29.56,East,90,5.4,6.9,77,0.00,CLR,,0.00,WeatherDisplay:10.37,2013-11-26 04:35:00,
2013-11-25 22:40:00,58.5,51.6,29.53,ESE,112,4.9,5.9,78,0.00,CLR,,0.00,WeatherDisplay:10.37,2013-11-26 04:40:00,
2013-11-25 22:45:00,58.5,52.0,29.53,East,90,3.3,4.6,79,0.00,CLR,,0.00,WeatherDisplay:10.37,2013-11-26 04:45:00,
2013-11-25 22:50:00,58.5,51.6,29.53,East,90,4.5,6.0,78,0.00,CLR,,0.00,WeatherDisplay:10.37,2013-11-26 04:50:00,
2013-11-25 22:55:00,58.5,52.3,29.56,East,90,5.9,6.9,80,0.00,CLR,,0.00,WeatherDisplay:10.37,2013-11-26 04:55:00,
2013-11-25 23:01:00,58.5,52.3,29.56,ESE,112,3.6,5.8,80,0.00,CLR,,0.00,WeatherDisplay:10.37,2013-11-26 05:01:00,
2013-11-25 23:02:00,58.5,52.3,29.56,ESE,112,3.6,4.6,80,0.00,CLR,,0.00,WeatherDisplay:10.37,2013-11-26 05:02:00,
2013-11-25 23:03:00,58.5,52.3,29.56,East,90,3.6,7.6,80,0.00,CLR,,0.00,WeatherDisplay:10.37,2013-11-26 05:03:00,
2013-11-25 23:06:00,58.5,52.3,29.56,East,90,4.7,7.6,80,0.00,CLR,,0.00,WeatherDisplay:10.37,2013-11-26 05:06:00,
2013-11-25 23:07:00,58.5,52.6,29.56,East,90,6.2,9.2,81,0.00,CLR,,0.00,WeatherDisplay:10.37,2013-11-26 05:07:00,
2013-11-25 23:08:00,58.5,52.6,29.56,ESE,112,7.6,9.2,81,0.00,CLR,,0.00,WeatherDisplay:10.37,2013-11-26 05:08:00,
2013-11-25 23:13:00,58.5,53.0,29.53,East,90,5.4,6.2,82,0.00,CLR,,0.00,WeatherDisplay:10.37,2013-11-26 05:13:00,
2013-11-25 23:16:00,58.5,53.0,29.53,East,90,3.1,5.8,82,0.00,CLR,,0.00,WeatherDisplay:10.37,2013-11-26 05:16:00,
2013-11-25 23:21:00,58.5,53.3,29.53,East,90,3.6,5.8,83,0.00,CLR,,0.00,WeatherDisplay:10.37,2013-11-26 05:21:00,
2013-11-25 23:26:00,58.6,53.8,29.53,East,90,3.6,6.2,84,0.00,CLR,,0.00,WeatherDisplay:10.37,2013-11-26 05:26:00,
2013-11-25 23:31:00,58.6,53.8,29.53,East,90,3.1,5.8,84,0.00,CLR,,0.00,WeatherDisplay:10.37,2013-11-26 05:31:00,
2013-11-25 23:36:00,59.0,54.5,29.53,SE,135,3.8,5.8,85,0.00,CLR,,0.00,WeatherDisplay:10.37,2013-11-26 05:36:00,
2013-11-25 23:41:00,59.4,55.5,29.53,East,90,2.9,4.6,87,0.00,CLR,,0.00,WeatherDisplay:10.37,2013-11-26 05:41:00,
2013-11-25 23:46:00,59.4,55.5,29.53,ESE,112,0.0,2.6,87,0.00,CLR,,0.00,WeatherDisplay:10.37,2013-11-26 05:46:00,
2013-11-25 23:51:00,59.5,55.7,29.53,East,90,1.6,3.5,87,0.00,CLR,,0.00,WeatherDisplay:10.37,2013-11-26 05:51:00,
2013-11-25 23:56:00,59.5,55.7,29.50,East,90,1.2,2.9,87,0.00,CLR,,0.00,WeatherDisplay:10.37,2013-11-26 05:56:00,